Location: Menteix
(45.7827°N, 1.6394°E)
Time: 10:59:35
(UTC+00:00)

Daily predictions for brighter satellites

Satellite Brightness Start Highest point End
(mag) Time Altitude Azimuth Time Altitude Azimuth Time Altitude Azimuth
COSMOS 2406 3.3 16:34:18 10° SSW 16:40:03 86° ESE 16:45:49 10° NNE
Cosmos 468 Rocket 4.4 16:36:11 10° SSW 16:41:19 66° WNW 16:46:32 10° NNE
Meteor 1-31 Rocket 4.3 16:40:54 10° S 16:44:29 40° W 16:48:08 10° NNW
Cosmos 1428 Rocket 4.5 16:42:09 10° N 16:48:17 66° E 16:54:25 10° SSE
NOSS 2-2 (C) 4.5 16:44:47 10° NW 16:50:03 86° NE 16:57:31 10° SE
Cosmos 1092 Rocket 4.0 16:47:02 10° N 16:53:26 82° E 16:59:45 10° S
CZ-4B R/B 4.1 16:49:22 10° ESE 16:53:38 25° ENE 16:57:52 10° N
Cosmos 1898 Rocket 4.4 16:48:32 10° NNW 16:53:38 55° WSW 16:58:41 10° S
CZ-2D R/B 4.2 16:52:30 10° SE 16:55:42 26° ENE 16:58:56 10° N
Meteor 2-21 4.4 16:50:56 10° N 16:57:00 68° E 17:03:00 10° SSE
ATLAS CENTAUR R/B 3.2 16:46:25 10° SW 16:57:12 73° NW 17:01:30 10° NE
USA 267 3.4 16:50:56 10° NE 16:57:26 64° SE 17:03:54 10° SW
Cosmos 1939 Rocket 2.9 16:54:14 10° SSE 16:58:16 61° ENE 17:02:17 10° N
USA 306 3.8 16:56:34 10° NW 17:00:25 32° NNE 17:03:51 12° ENE
Cosmos 1151 Rocket 3.5 16:56:48 10° SSE 17:00:49 38° E 17:04:53 10° NNE
Cosmos 1633 Rocket 3.6 16:57:58 10° N 17:02:03 36° ENE 17:06:07 10° SE
COSMO-SKYMED 1 4.1 16:59:21 10° NE 17:02:20 18° E 17:05:18 10° SE
Cosmos 1782 2.7 16:58:53 10° S 17:02:52 77° E 17:06:51 10° NNE
Cosmos 1666 3.1 17:00:20 10° N 17:03:49 38° ENE 17:07:18 10° SE
Cosmos 2360 Rocket 3.6 17:01:37 10° N 17:05:20 17° NE 17:08:17 12° ENE
ISS -2.5 17:02:52 10° WNW 17:06:08 44° SW 17:09:22 10° SE
SeaSat 1 4.4 17:05:15 10° N 17:09:08 24° NW 17:13:00 10° W
SL-08 R/B 4.0 17:05:24 10° N 17:09:58 54° WNW 17:14:27 10° SSW
NOAA 12 4.4 17:05:34 10° S 17:10:52 73° WSW 17:16:12 10° NNW
Cosmos 1818 3.7 17:06:04 10° NNW 17:11:30 57° NE 17:16:50 10° SE
CZ-2C R/B 3.6 17:12:30 10° SSW 17:15:16 17° S 17:18:00 10° SE
Meteor 2-14 Rocket 4.5 17:10:10 10° N 17:16:18 86° W 17:22:22 10° S
Cosmos 2279 Rocket 4.0 17:10:45 10° S 17:16:49 58° E 17:22:53 10° NNE
ATLAS 5 CENTAUR R/B 3.1 17:10:30 10° NW 17:17:38 32° NNE 17:19:39 18° ENE
Cosmos 2142 Rocket 4.5 17:11:41 10° S 17:17:44 63° E 17:23:54 10° NNE
Cosmos 841 Rocket 3.8 17:12:46 10° SSW 17:17:54 67° WNW 17:23:02 10° NNE
USA 307 3.6 17:17:08 10° NW 17:21:05 35° NNE 17:23:33 19° ENE
CZ-4C R/B 3.1 17:15:14 10° NW 17:22:32 88° SW 17:31:04 10° SE
Lacrosse 5 rocket 1.2 17:20:39 10° NW 17:24:33 68° NE 17:28:40 10° ESE
Cosmos 2208 Rocket 4.1 17:21:58 10° S 17:27:19 65° ESE 17:32:44 10° NNE
ATLAS 2AS CENTAUR R/B 4.4 17:22:07 10° NW 17:27:22 19° N 17:31:18 13° NE
Cosmos 2322 Rocket 2.8 17:23:25 10° NNW 17:28:37 34° NE 17:33:47 10° ESE
Cosmos 1933 Rocket 4.4 17:25:24 10° NNE 17:29:06 26° ENE 17:32:46 10° SE
AQUARIUS 4.2 17:25:06 10° SSE 17:29:34 82° WSW 17:34:06 10° NNW
Cosmos 2150 Rocket 4.2 17:25:39 10° NNW 17:30:40 47° ENE 17:35:43 10° SE
Cosmos 1328 Rocket 3.6 17:26:29 10° S 17:30:50 57° E 17:35:12 10° NNE
USA 234 3.2 17:24:29 10° ESE 17:31:00 71° NNE 17:37:30 10° NW
Cosmos 1666 Rocket 3.5 17:27:14 10° N 17:31:41 90° S 17:36:04 10° S
Cosmos 1980 Rocket 3.0 17:26:24 10° NNW 17:31:56 56° WSW 17:37:24 10° S
CORIOLIS 4.4 17:29:40 10° S 17:35:04 76° WSW 17:40:33 10° NNW
Cosmos 1470 Rocket 3.8 17:30:56 10° N 17:35:17 48° ENE 17:39:37 10° SSE
Cosmos 1544 3.6 17:32:02 10° N 17:35:21 33° ENE 17:38:40 10° SE
Cosmos 1867 4.5 17:31:39 10° S 17:36:19 30° ESE 17:38:27 23° ENE
Cosmos 1812 2.9 17:32:50 10° SSW 17:36:40 73° W 17:40:32 10° N
Cosmos 1125 Rocket 3.7 17:31:48 10° NNW 17:36:55 50° ENE 17:42:01 10° SE
X-37B 1.8 17:34:33 10° SW 17:37:03 26° SSE 17:37:49 23° SE
PSLV R/B 3.6 17:34:00 10° SSE 17:37:42 89° ENE 17:41:29 10° NNW
DEBRIS 4.4 17:36:25 10° SSE 17:38:25 17° ESE 17:38:35 17° ESE
H-2A R/B 1.9 17:33:21 10° SSE 17:38:27 73° ENE 17:43:27 10° N
Okean O Rocket 2.0 17:36:08 10° SE 17:40:18 41° ENE 17:44:30 10° N
Meteor 2-8 Rocket 4.4 17:34:38 10° S 17:40:44 67° E 17:46:51 10° NNE
Meteor 1-10 Rocket 4.4 17:35:20 10° SSE 17:40:52 52° E 17:46:21 10° NNE
Meteor 1-11 Rocket 4.0 17:36:57 10° N 17:42:23 45° ENE 17:47:53 10° SE
USA 308 3.4 17:39:49 10° NW 17:43:53 43° NNE 17:45:21 31° ENE
SL-16 R/B 2.2 17:43:46 10° NNW 17:49:25 61° ENE 17:55:00 10° SE
ARGOS 3.2 17:45:04 10° SSE 17:50:21 57° ENE 17:55:38 10° N
SKYMED 2 3.6 17:47:47 19° NNE 17:50:43 54° E 17:54:58 10° S
Cosmos 2082 Rocket 3.1 17:45:45 10° SW 17:51:12 46° WNW 17:56:40 10° NNE
SMAP 4.5 17:49:32 10° SSW 17:53:55 41° W 17:58:20 10° NNW
deb Chang Zheng 4 3.4 17:51:33 10° SSE 17:55:50 68° ENE 18:00:07 10° N
COSMOS 2455 4.0 17:54:05 10° WSW 17:59:41 38° NW 18:04:54 12° NNE
Feng Yun 1-1 Rocket 4.4 17:59:34 10° SE 18:05:16 52° ENE 18:10:54 10° N
USA 305 2.9 18:04:06 10° NW 18:08:19 61° NNE 18:08:52 55° ENE
Cosmos 2333 Rocket 3.4 18:04:16 10° N 18:08:04 25° NNE 18:08:04 25° NNE
Cosmos 1356 Rocket 3.3 18:05:45 10° N 18:09:59 75° E 18:14:14 10° SSE
CZ-2C R/B 2.4 18:06:50 11° NNE 18:11:54 88° ESE 18:17:04 10° SSW
Cosmos 2219 Rocket 3.7 18:12:19 10° N 18:15:04 20° NNE 18:15:04 20° NNE
Aureole 3 Rocket 3.5 18:12:44 10° S 18:17:11 62° E 18:23:31 10° NNE
Cosmos 44 Rocket 4.3 18:12:47 10° NW 18:17:26 45° WSW 18:21:56 10° S
Cosmos 1655 Rocket 4.0 18:11:31 10° N 18:17:57 85° W 18:24:18 10° S
Cosmos 1515 Rocket 3.5 18:13:31 10° S 18:17:58 83° W 18:20:27 26° N
Cosmos 921 Rocket 3.6 18:16:25 10° SW 18:20:32 53° WNW 18:22:47 25° N
Spot 2 4.4 18:23:28 42° SE 18:24:58 60° ENE 18:29:58 10° N
CZ-4B R/B 3.9 18:28:38 10° S 18:33:52 52° W 18:39:05 10° NNW
COSMO-SKYMED 1 3.5 18:36:23 23° N 18:38:45 47° WNW 18:42:55 10° SW
USA 267 3.7 18:37:47 34° NNE 18:40:22 52° NNW 18:46:39 10° W
USA 306 3.3 18:36:23 10° WNW 18:39:52 59° WNW 18:39:52 59° WNW
Landsat 5 3.8 18:41:36 60° W 18:41:36 60° W 18:45:17 10° SSW
Meteor 1-27 Rocket 3.7 18:38:23 10° SSW 18:43:53 79° W 18:46:30 33° N
Cosmos 2360 Rocket 2.0 18:44:33 10° NNW 18:50:08 81° NE 18:50:08 81° NE
Cosmos 2237 4.4 18:47:59 10° NNW 18:53:42 71° WSW 18:55:53 38° S
CZ-2C R/B 3.6 18:51:08 10° SW 18:53:23 17° SSW 18:53:23 17° SSW
DMSP B5D2-2 4.5 19:00:34 55° SSW 19:00:34 55° SSW 19:04:37 10° SSW
USA 307 4.3 18:56:59 10° WNW 18:59:36 36° WNW 18:59:36 36° WNW
Lacrosse 5 rocket 3.7 19:00:24 10° W 19:03:20 19° SW 19:04:38 17° SSW
Cosmos 2322 Rocket 3.3 19:07:25 10° NW 19:12:46 43° WSW 19:17:09 15° S
USA 234 4.3 19:10:00 19° S 19:14:16 40° SW 19:20:22 10° WNW
Okean O Rocket 4.0 19:13:22 10° SW 19:16:48 22° W 19:20:16 10° NW
NOSS 3-4 (A) 4.2 19:11:03 10° NW 19:16:20 50° N 19:16:20 50° N
NOSS 3-4 (C) 4.2 19:11:09 10° NW 19:16:24 49° N 19:16:24 49° N
Cosmos 1867 4.3 19:14:21 10° WSW 19:19:09 49° WNW 19:19:09 49° WNW
ATLAS 2AS CENTAUR R/B 4.0 19:14:09 10° NNW 19:18:45 29° N 19:18:45 29° N
NOSS 3-3 (A) 4.3 19:21:07 10° SW 19:25:51 58° W 19:25:51 58° W
NOSS 3-3 (C) 4.3 19:21:12 10° SW 19:25:55 58° W 19:25:55 58° W
SL-16 R/B 4.4 19:28:46 10° NW 19:33:02 22° W 19:37:16 10° SSW
Cosmos 2333 Rocket 4.2 19:48:06 10° NNW 19:50:07 22° NW 19:50:07 22° NW
